Emmonak, AK

5:42 AM AKDT on April 28, 2017 (GMT -0800)
Emmonak

Weather History for PAEM - November, 2013

Change the Weather History Date:

Saturday, November 2, 2013

  Actual Average Record
Temperature  
Mean Temperature 26 °F -  
Max Temperature 30 °F 27 °F 48 °F (2003)
Min Temperature 21 °F 19 °F 6 °F (1997)
Degree Days  
Heating Degree Days 40    
Moisture  
Dew Point 20 °F    
Average Humidity 79    
Maximum Humidity 86    
Minimum Humidity 69    
Precipitation  
Precipitation 0.00 in - - ()
Sea Level Pressure  
Sea Level Pressure 29.61 in    
Wind  
Wind Speed 11 mph (ENE)    
Max Wind Speed 14 mph    
Max Gust Speed 18 mph    
Visibility 9 miles    
Events      
Averages and records for this station are not official NWS values.
T = Trace of Precipitation, MM = Missing Value Source: NWS Daily Summary

Daily Weather History Graph

Daily Weather History Graph

Search for Another Location

Airport or City:

Trip Planner

Search our weather history database for the weather conditions in past years. The results will help you decide how hot, cold, wet, or windy it might be!

Date:

Astronomy

Nov. 02, 2013 Rise Set
Actual Time 10:38 AM AKDT 6:43 PM AKDT
Civil Twilight 9:47 AM AKDT 7:34 PM AKDT
Nautical Twilight 8:52 AM AKDT 8:29 PM AKDT
Astronomical Twilight 7:59 AM AKDT 9:21 PM AKDT
Moon 9:40 AM AKDT (11/2) 6:26 PM AKDT (11/2)
Length of Visible Light 9h 47m
Length of Day
8h 05m
Waning Crescent, 1% of the Moon is Illuminated
Nov 2
Waning Crescent
Nov 3
New
Nov 9
First Quarter
Nov 17
Full
Nov 25
Last Quarter

Hourly Weather History & Observations

Time (AKDT) Temp. Windchill Dew Point Humidity Pressure Visibility Wind Dir Wind Speed Gust Speed Precip Events Conditions
12:16 AM 24.8 °F 13.4 °F 19.4 °F 80% 29.84 in 10.0 mi SE 12.7 mph - N/A   Overcast
12:36 AM 24.8 °F 12.9 °F 19.4 °F 80% 29.84 in 3.0 mi ESE 13.8 mph 18.4 mph N/A   Overcast
12:56 AM 24.8 °F 14.6 °F 19.4 °F 80% 29.83 in 10.0 mi ESE 10.4 mph - N/A   Overcast
1:16 AM 24.8 °F 13.4 °F 19.4 °F 80% 29.82 in 2.5 mi East 12.7 mph - N/A   Overcast
1:36 AM 24.8 °F 14.6 °F 19.4 °F 80% 29.81 in 4.0 mi ESE 10.4 mph - N/A   Overcast
1:56 AM 24.8 °F 13.4 °F 19.4 °F 80% 29.80 in 10.0 mi ESE 12.7 mph 18.4 mph N/A   Overcast
2:16 AM 24.8 °F 14.0 °F 19.4 °F 80% 29.80 in 10.0 mi SE 11.5 mph - N/A   Overcast
2:36 AM 24.8 °F 14.6 °F 19.4 °F 80% 29.79 in 8.0 mi ESE 10.4 mph - N/A   Overcast
2:56 AM 24.8 °F 14.6 °F 19.4 °F 80% 29.78 in 5.0 mi ESE 10.4 mph - N/A   Overcast
3:16 AM 24.8 °F 14.6 °F 19.4 °F 80% 29.78 in 5.0 mi SE 10.4 mph 17.3 mph N/A   Overcast
3:36 AM 24.8 °F 15.3 °F 19.4 °F 80% 29.77 in 3.0 mi ESE 9.2 mph - N/A   Overcast
3:56 AM 24.8 °F 14.0 °F 19.4 °F 80% 29.76 in 4.0 mi ESE 11.5 mph - N/A   Overcast
4:16 AM 24.8 °F 14.6 °F 19.4 °F 80% 29.75 in 3.0 mi ESE 10.4 mph - N/A   Overcast
4:36 AM 24.8 °F 14.6 °F 19.4 °F 80% 29.74 in 5.0 mi ESE 10.4 mph - N/A   Overcast
4:56 AM 24.8 °F 14.0 °F 19.4 °F 80% 29.72 in 2.5 mi East 11.5 mph - N/A   Overcast
5:16 AM 24.8 °F 14.6 °F 19.4 °F 80% 29.71 in 8.0 mi East 10.4 mph - N/A   Overcast
5:36 AM 24.8 °F 13.4 °F 19.4 °F 80% 29.69 in 10.0 mi East 12.7 mph - N/A   Mostly Cloudy
5:56 AM 24.8 °F 16.1 °F 19.4 °F 80% 29.69 in 10.0 mi East 8.1 mph - N/A   Partly Cloudy
6:16 AM 24.8 °F 16.1 °F 17.6 °F 74% 29.67 in 10.0 mi East 8.1 mph - N/A   Partly Cloudy
6:36 AM 23.0 °F 13.9 °F 19.4 °F 86% 29.66 in 10.0 mi ENE 8.1 mph - N/A   Clear
6:56 AM 23.0 °F 13.9 °F 17.6 °F 80% 29.66 in 10.0 mi East 8.1 mph - N/A   Clear
7:16 AM 23.0 °F 14.7 °F 17.6 °F 80% 29.64 in 10.0 mi ENE 6.9 mph - N/A   Clear
7:36 AM 23.0 °F 13.9 °F 17.6 °F 80% 29.64 in 10.0 mi East 8.1 mph - N/A   Partly Cloudy
7:56 AM 23.0 °F 13.9 °F 17.6 °F 80% 29.63 in 10.0 mi East 8.1 mph - N/A   Partly Cloudy
8:16 AM 23.0 °F 13.1 °F 17.6 °F 80% 29.63 in 10.0 mi ENE 9.2 mph - N/A   Clear
8:36 AM 21.2 °F 10.9 °F 17.6 °F 86% 29.63 in 10.0 mi East 9.2 mph - N/A   Clear
8:56 AM 21.2 °F 11.7 °F 17.6 °F 86% 29.62 in 10.0 mi ENE 8.1 mph - N/A   Clear
9:16 AM 21.2 °F 9.5 °F 17.6 °F 86% 29.61 in 10.0 mi East 11.5 mph - N/A   Clear
9:36 AM 21.2 °F 10.1 °F 17.6 °F 86% 29.62 in 10.0 mi East 10.4 mph - N/A   Scattered Clouds
9:56 AM 21.2 °F 10.9 °F 15.8 °F 80% 29.61 in 10.0 mi East 9.2 mph - N/A   Mostly Cloudy
10:16 AM 21.2 °F 10.9 °F 17.6 °F 86% 29.61 in 10.0 mi East 9.2 mph - N/A   Mostly Cloudy
10:36 AM 21.2 °F 10.9 °F 17.6 °F 86% 29.60 in 10.0 mi East 9.2 mph - N/A   Mostly Cloudy
10:56 AM 21.2 °F 10.9 °F 17.6 °F 86% 29.60 in 10.0 mi ENE 9.2 mph - N/A   Partly Cloudy
11:16 AM 21.2 °F 10.9 °F 17.6 °F 86% 29.59 in 10.0 mi ENE 9.2 mph - N/A   Clear
11:36 AM 21.2 °F 9.5 °F 17.6 °F 86% 29.59 in 10.0 mi East 11.5 mph - N/A   Clear
11:56 AM 21.2 °F 10.1 °F 17.6 °F 86% 29.59 in 10.0 mi East 10.4 mph - N/A   Clear
12:16 PM 23.0 °F 13.1 °F 17.6 °F 80% 29.59 in 10.0 mi ENE 9.2 mph - N/A   Clear
12:36 PM 23.0 °F 12.4 °F 17.6 °F 80% 29.59 in 10.0 mi ENE 10.4 mph - N/A   Clear
12:56 PM 23.0 °F 13.1 °F 17.6 °F 80% 29.58 in 10.0 mi ENE 9.2 mph - N/A   Clear
1:16 PM 24.8 °F 14.0 °F 17.6 °F 74% 29.58 in 10.0 mi East 11.5 mph - N/A   Clear
1:36 PM 24.8 °F 13.4 °F 17.6 °F 74% 29.57 in 10.0 mi East 12.7 mph - N/A   Clear
1:56 PM 24.8 °F 12.9 °F 17.6 °F 74% 29.57 in 10.0 mi East 13.8 mph - N/A   Clear
2:16 PM 26.6 °F 16.2 °F 19.4 °F 74% 29.56 in 10.0 mi East 11.5 mph - N/A   Clear
2:36 PM 26.6 °F 15.7 °F 19.4 °F 74% 29.55 in 10.0 mi ENE 12.7 mph - N/A   Scattered Clouds
2:56 PM 26.6 °F 16.8 °F 19.4 °F 74% 29.55 in 10.0 mi ENE 10.4 mph - N/A   Mostly Cloudy
3:16 PM 26.6 °F 16.8 °F 19.4 °F 74% 29.54 in 10.0 mi ENE 10.4 mph - N/A   Mostly Cloudy
3:36 PM 26.6 °F 16.8 °F 19.4 °F 74% 29.53 in 10.0 mi NE 10.4 mph - N/A   Scattered Clouds
3:56 PM 26.6 °F 17.5 °F 19.4 °F 74% 29.53 in 10.0 mi ENE 9.2 mph - N/A   Clear
4:16 PM 26.6 °F 16.2 °F 19.4 °F 74% 29.52 in 10.0 mi ENE 11.5 mph - N/A   Partly Cloudy
4:36 PM 28.4 °F 19.1 °F 19.4 °F 69% 29.53 in 10.0 mi NE 10.4 mph - N/A   Mostly Cloudy
4:56 PM 28.4 °F 19.1 °F 19.4 °F 69% 29.52 in 10.0 mi NE 10.4 mph - N/A   Scattered Clouds
5:16 PM 28.4 °F 20.4 °F 21.2 °F 74% 29.52 in 10.0 mi NE 8.1 mph - N/A   Scattered Clouds
5:36 PM 28.4 °F 19.7 °F 21.2 °F 74% 29.52 in 10.0 mi ENE 9.2 mph - N/A   Overcast
5:56 PM 28.4 °F 19.7 °F 21.2 °F 74% 29.51 in 10.0 mi ENE 9.2 mph - N/A   Overcast
6:16 PM 28.4 °F 19.1 °F 21.2 °F 74% 29.50 in 10.0 mi NE 10.4 mph - N/A   Overcast
6:36 PM 28.4 °F 18.5 °F 21.2 °F 74% 29.50 in 10.0 mi ENE 11.5 mph - N/A   Overcast
6:56 PM 28.4 °F 19.1 °F 21.2 °F 74% 29.50 in 10.0 mi ENE 10.4 mph - N/A   Overcast
7:16 PM 28.4 °F 19.7 °F 21.2 °F 74% 29.50 in 10.0 mi ENE 9.2 mph - N/A   Overcast
7:36 PM 30.2 °F 21.9 °F 23.0 °F 75% 29.50 in 10.0 mi ENE 9.2 mph - N/A   Overcast
7:56 PM 30.2 °F 21.9 °F 23.0 °F 75% 29.49 in 10.0 mi ENE 9.2 mph - N/A   Overcast
8:16 PM 30.2 °F 21.3 °F 23.0 °F 75% 29.49 in 10.0 mi ENE 10.4 mph - N/A   Overcast
8:36 PM 30.2 °F 22.6 °F 23.0 °F 75% 29.49 in 10.0 mi ENE 8.1 mph - N/A   Overcast
8:56 PM 30.2 °F 21.3 °F 23.0 °F 75% 29.49 in 10.0 mi ENE 10.4 mph - N/A   Overcast
9:16 PM 28.4 °F 19.1 °F 24.8 °F 86% 29.48 in 10.0 mi ENE 10.4 mph - N/A   Overcast
9:36 PM 28.4 °F 20.4 °F 24.8 °F 86% 29.48 in 10.0 mi ENE 8.1 mph - N/A   Overcast
9:56 PM 28.4 °F 19.7 °F 24.8 °F 86% 29.48 in 10.0 mi ENE 9.2 mph - N/A   Overcast
10:16 PM 28.4 °F 19.7 °F 24.8 °F 86% 29.48 in 10.0 mi ENE 9.2 mph - N/A   Overcast
10:36 PM 28.4 °F 19.7 °F 24.8 °F 86% 29.47 in 7.0 mi NE 9.2 mph - N/A   Overcast
10:56 PM 30.2 °F 21.9 °F 24.8 °F 80% 29.47 in 10.0 mi NE 9.2 mph - N/A   Overcast
11:16 PM 30.2 °F 21.3 °F 24.8 °F 80% 29.47 in 7.0 mi NE 10.4 mph - N/A   Overcast
11:36 PM 30.2 °F 21.9 °F 26.6 °F 86% 29.47 in 5.0 mi NE 9.2 mph - N/A   Overcast
11:56 PM 30.2 °F 21.3 °F 26.6 °F 86% 29.46 in 7.0 mi ENE 10.4 mph - N/A   Overcast